Location: Borgo
(42.3939°N, 9.2791°E)
Time: 18:48:45
(UTC+00:00)

Cosmos 1758 Rocket - Pass Details

Date: 24 January 2021
Orbit: 601 x 636 km, 82.5° (Epoch: 03 March)

Event Time Altitude Azimuth Distance (km) Brightness Sun altitude
Rises 17:37:47 0° 164° (SSE) 2,892 7.0 -13.2°
Reaches altitude 10° 17:40:09 10° 154° (SSE) 1,996 6.0 -13.6°
Maximum altitude 17:44:07 33° 91° (E) 1,054 4.2 -14.3°
Enters shadow 17:47:32 13° 31° (NNE) 1,803 5.5 -14.9°
